Tracking 31027 objects as of 19-Jul-2025
HD Live streaming from Space Station
objects crossing your sky now

STARLINK-32137

Track STARLINK-32137 now!
10-day predictions
STARLINK-32137 is classified as:


NORAD ID: 60155
Int'l Code: 2024-120W
Perigee: 481.6 km
Apogee: 483.1 km
Inclination: 53.2 °
Period: 94.1 minutes
Semi major axis: 6853 km
RCS: Unknown
Launch date: June 27, 2024
Source: United States (US)
Launch site: AIR FORCE EASTERN TEST RANGE (AFETR)
Your satellite tracking list
HAWK-4A
Track 1 satellite(s)




NASA's NSSDC Master Catalog

Two Line Element Set (TLE):
1 60155U 24120W   25199.51952824 -.00000756  00000-0 -13413-4 0  9994
2 60155  53.1607 327.6226 0001086  91.4055 268.7070 15.30190567 60528
Source of the keplerian elements: AFSPC